Location: La Comballaz
(46.3780°N, 7.0817°E)
Time: 19:23:26
(UTC+00:00)

N. Korean satellite - Pass Details

Date: 08 December 2021
Orbit: 446 x 492 km, 97.3° (Epoch: 18 January)

Event Time Altitude Azimuth Distance (km) Brightness Sun altitude
Rises 05:58:00 0° 355° (N) 2,463 9.9 -10.6°
Reaches altitude 10° 06:00:42 10° 331° (NNW) 1,583 8.7 -10.2°
Maximum altitude 06:02:39 15° 295° (WNW) 1,314 8.1 -9.9°
Drops below altitude 10° 06:04:37 10° 260° (W) 1,576 8.7 -9.6°
Sets 06:07:17 0° 235° (SW) 2,444 9.8 -9.2°
